FW7233 Weather Reports


time (UTC)temp
F
wind
direction
speed
knots
gust
knots
rain 1hr
in
rain 24hr
in
rain mn
in
humidity
%
barometer
mb
20260508063635 47 197 0.0 2.6 0.00 0.00 0.00 99 1018.0
20260508062636 47 143 0.0 1.7 0.00 0.00 0.00 99 1018.1
20260508060637 47 140 0.0 1.7 0.00 0.03 0.00 99 1017.8
20260508055635 46 169 0.0 0.9 0.00 0.03 0.00 99 1017.7
20260508054635 46 153 0.9 1.7 0.00 0.03 0.00 99 1017.8
20260508053635 46 144 0.0 1.7 0.00 0.03 0.00 99 1017.5
20260508052635 46 166 0.9 2.6 0.00 0.03 0.00 99 1017.9
20260508050635 46 71 0.0 1.7 0.00 0.03 0.00 98 1017.8
20260508045637 46 120 0.0 1.7 0.00 0.03 0.00 98 1017.7
20260508044638 46 167 0.0 0.9 0.00 0.03 0.00 98 1017.7
20260508043637 46 146 0.0 0.9 0.00 0.03 0.00 98 1017.7
20260508035648 46 135 0.0 0.9 0.00 0.03 0.00 98 1017.1
20260508034636 46 134 0.0 0.9 0.00 0.03 0.00 98 1017.1
20260508033635 46 149 0.0 0.9 0.00 0.03 0.00 98 1017.0
20260508032638 46 134 0.0 0.0 0.00 0.04 0.00 98 1016.8
20260508030635 46 136 0.0 0.9 0.00 0.04 0.00 98 1016.7
20260508024637 46 142 0.0 0.0 0.00 0.05 0.00 97 1016.7
20260508023635 46 136 0.0 0.9 0.00 0.05 0.00 97 1016.8
20260508021635 46 132 0.0 0.9 0.00 0.05 0.00 97 1016.7
20260508020635 46 138 0.0 0.9 0.00 0.05 0.00 96 1016.9
20260508015637 46 93 0.0 0.9 0.00 0.05 0.00 96 1016.8
20260508012635 46 336 0.9 1.7 0.00 0.05 0.00 95 1016.6
20260508011635 46 128 0.0 0.9 0.00 0.05 0.00 95 1016.8
20260508010636 47 137 0.0 1.7 0.00 0.05 0.00 94 1017.3
20260508005636 47 45 0.9 0.9 0.00 0.05 0.00 94 1017.1
20260508004634 47 32 0.9 2.6 0.00 0.05 0.00 93 1017.1
20260508003634 47 67 0.0 1.7 0.00 0.05 0.00 93 1016.7
20260508000637 47 144 0.0 2.6 0.00 0.05 0.00 94 1016.8
20260507235635 47 143 0.0 2.6 0.00 0.05 0.00 94 1016.8
20260507234634 48 136 0.0 1.7 0.00 0.05 0.00 94 1016.9
20260507233637 48 141 0.0 1.7 0.00 0.05 0.00 94 1016.9
20260507232634 48 128 0.0 1.7 0.00 0.06 0.00 95 1016.3
20260507230634 48 137 0.0 1.7 0.00 0.10 0.00 95 1016.4
20260507225636 48 116 0.0 0.9 0.00 0.14 0.00 95 1016.3
20260507224636 48 121 0.0 0.9 0.00 0.15 0.00 95 1016.4
20260507223635 48 134 0.0 0.9 0.00 0.17 0.00 95 1016.7
20260507220634 48 119 0.0 1.7 0.00 0.18 0.00 96 1016.4
20260507215636 48 138 0.0 0.9 0.00 0.18 0.18 97 1016.2
20260507214634 48 132 0.0 1.7 0.00 0.18 0.18 97 1016.3
20260507213634 49 133 0.0 0.0 0.00 0.18 0.18 97 1016.0
20260507212635 49 134 0.0 0.0 0.00 0.19 0.18 97 1016.3
20260507210636 49 133 0.0 0.0 0.00 0.19 0.18 97 1016.1
20260507204636 49 135 0.0 0.9 0.00 0.23 0.18 97 1016.0
20260507202637 49 82 0.0 1.7 0.00 0.28 0.18 97 1015.7
20260507201636 49 130 0.0 0.9 0.00 0.28 0.18 97 1015.9
20260507200647 49 149 0.0 0.9 0.00 0.28 0.18 97 1015.9
20260507195636 49 143 0.0 1.7 0.00 0.28 0.18 97 1015.7
20260507194634 49 151 0.0 1.7 0.00 0.28 0.18 97 1015.6
20260507193635 49 137 0.0 0.0 0.00 0.28 0.18 97 1015.7
20260507191636 49 132 0.0 0.9 0.00 0.28 0.18 97 1015.4
20260507190635 49 138 0.0 0.0 0.00 0.28 0.18 97 1015.3
20260507185634 50 136 0.0 0.9 0.00 0.28 0.18 96 1015.2
20260507183634 50 136 0.0 0.0 0.00 0.28 0.18 96 1015.2
20260507182635 50 149 0.0 0.9 0.00 0.28 0.18 96 1014.7
20260507181633 50 68 0.9 2.6 0.00 0.28 0.18 96 1014.8
20260507180637 50 136 0.0 0.9 0.00 0.28 0.18 96 1014.8
20260507174636 51 133 0.0 0.9 0.00 0.28 0.18 96 1014.4
20260507173634 51 130 0.0 1.7 0.00 0.28 0.18 96 1014.7
20260507172633 51 142 0.0 0.9 0.00 0.28 0.18 95 1014.3
20260507171637 51 142 0.0 0.0 0.00 0.28 0.18 95 1014.4
20260507170635 51 142 0.9 0.9 0.00 0.28 0.18 95 1014.1
20260507165635 51 141 0.0 0.9 0.00 0.28 0.18 95 1014.0
20260507164636 51 120 0.0 1.7 0.00 0.28 0.18 95 1013.9
20260507163636 51 127 0.0 2.6 0.00 0.28 0.18 95 1013.9
20260507162634 51 61 1.7 2.6 0.00 0.28 0.18 94 1013.5
20260507161635 51 142 0.9 1.7 0.00 0.28 0.18 94 1013.3
20260507160637 51 54 0.0 2.6 0.00 0.28 0.18 94 1013.7
20260507155635 52 133 0.0 1.7 0.00 0.28 0.18 94 1013.3
20260507154636 52 69 0.9 2.6 0.00 0.28 0.18 93 1013.7
20260507152648 53 136 0.0 1.7 0.00 0.28 0.18 92 1013.2
20260507151634 53 113 0.0 3.5 0.00 0.28 0.18 92 1013.6
20260507145634 53 113 0.9 3.5 0.00 0.28 0.18 92 1013.5
20260507144634 54 350 1.7 3.5 0.00 0.28 0.18 91 1013.2
20260507143634 54 323 0.9 2.6 0.00 0.28 0.18 91 1013.2
20260507142635 54 128 0.9 2.6 0.00 0.28 0.18 92 1013.3
20260507141635 54 132 0.9 3.5 0.00 0.28 0.18 92 1013.4
20260507135635 55 164 0.9 1.7 0.00 0.28 0.18 91 1013.7
20260507133636 55 74 0.9 2.6 0.00 0.28 0.18 91 1013.4
20260507132638 56 129 0.0 2.6 0.00 0.28 0.18 90 1013.2
20260507131634 56 4 0.9 1.7 0.00 0.28 0.18 90 1013.1
20260507130634 56 64 0.0 1.7 0.00 0.28 0.18 90 1013.0
20260507125635 57 137 0.0 1.7 0.00 0.28 0.18 90 1012.8
20260507124648 58 138 0.0 1.7 0.00 0.28 0.18 89 1013.1
20260507123633 58 150 0.0 0.9 0.00 0.28 0.18 90 1012.9
20260507121636 57 140 0.0 2.6 0.00 0.28 0.18 91 1012.9
20260507120636 56 115 0.0 1.7 0.00 0.28 0.18 92 1012.7
20260507115633 56 117 0.9 2.6 0.00 0.28 0.18 92 1012.9
20260507114634 55 133 0.0 0.9 0.00 0.28 0.18 93 1013.0
20260507113636 55 130 0.0 0.9 0.00 0.28 0.18 92 1013.1
20260507112635 55 127 0.0 0.9 0.00 0.28 0.18 92 1012.8
20260507111635 56 118 0.0 1.7 0.00 0.28 0.18 91 1012.5
20260507110634 56 88 0.0 0.9 0.00 0.28 0.18 93 1012.6
20260507105635 55 158 0.0 2.6 0.00 0.28 0.18 96 1012.6
20260507103638 54 122 0.0 0.9 0.00 0.28 0.18 99 1012.5
20260507102635 53 126 0.0 1.7 0.00 0.28 0.18 99 1012.5
20260507101636 53 117 0.0 0.9 0.00 0.28 0.18 99 1012.3
20260507100634 53 138 0.0 0.9 0.00 0.28 0.18 99 1012.1
20260507093636 52 95 0.0 1.7 0.00 0.28 0.18 99 1011.9
20260507092635 52 138 0.0 0.9 0.00 0.28 0.18 99 1011.6
20260507091637 51 143 0.0 0.9 0.00 0.28 0.18 99 1011.9
20260507085637 51 23 0.9 1.7 0.00 0.28 0.18 99 1011.4
20260507083647 51 140 0.0 0.9 0.00 0.28 0.18 99 1011.2
20260507082634 50 114 0.0 1.7 0.00 0.28 0.18 99 1011.1
20260507081634 51 136 0.0 1.7 0.00 0.28 0.18 99 1011.1
20260507080635 51 109 0.0 1.7 0.00 0.28 0.18 99 1011.2
20260507074634 51 119 0.0 1.7 0.00 0.28 0.18 99 1011.1
20260507073634 50 37 0.0 1.7 0.00 0.28 0.18 99 1010.8
20260507072633 50 140 0.0 2.6 0.00 0.28 0.18 99 1010.7
20260507065648 50 153 0.0 1.7 0.03 0.25 0.18 99 1010.4